CW7849 Lidkaping SE current weather conditions

sailwx.info

Wind from 097 at 7 knots gusting 13

Air temperature 3.3° C
Dewpoint 2.0° C

Last reported at 2019-Nov-12 05:04 UTC.
Time now 2019-Nov-12 06:10 UTC

Location: N 58°24' E 013°17'.
View on Google Maps.

See reports from other nearby stations

  
Tides and Currents Weather Stations Pressure Air Temp Water Temp Dewpoint Dewpoint Depression Visibility Wind Speed Wind Dir Waves Ship Positions
date/time (UTC)wind fromknots sea level pressurealtimeterstation pressurevisibilityair tempwater tempwave heightnotes
2019-Nov-12 05:04 097 7 gusting 13 3.3
2019-Nov-12 04:59 103 7 gusting 12 3.3
2019-Nov-12 04:54 097 7 gusting 11 3.3
2019-Nov-12 04:49 099 7 gusting 13 3.3
2019-Nov-12 04:44 099 7 gusting 12 3.3
2019-Nov-12 04:39 096 7 gusting 13 3.3
2019-Nov-12 04:34 096 8 gusting 12 3.3
2019-Nov-12 04:29 100 8 gusting 11 3.3
2019-Nov-12 04:24 099 8 gusting 13 3.3
2019-Nov-12 04:19 093 8 gusting 13 3.3
2019-Nov-12 04:14 099 7 gusting 13 3.3
2019-Nov-12 04:09 091 7 gusting 14 3.3
2019-Nov-12 04:04 096 8 gusting 13 3.3
2019-Nov-12 03:59 096 8 gusting 11 3.3
2019-Nov-12 03:54 092 8 gusting 13 3.3
2019-Nov-12 03:49 093 8 gusting 13 3.3
2019-Nov-12 03:44 094 6 gusting 12 3.3
2019-Nov-12 03:39 095 6 gusting 13 3.3
2019-Nov-12 03:34 096 6 gusting 11 3.3
2019-Nov-12 03:29 097 6 gusting 12 2.8
2019-Nov-12 03:24 093 6 gusting 8 2.8
2019-Nov-12 03:19 089 6 gusting 10 3.3
2019-Nov-12 03:14 087 5 gusting 11 2.8
2019-Nov-12 03:09 089 5 gusting 8 2.8
2019-Nov-12 03:04 093 5 gusting 6 3.3
2019-Nov-12 02:59 082 5 gusting 6 2.8
2019-Nov-12 02:54 090 5 gusting 7 2.8
2019-Nov-12 02:49 095 5 gusting 6 2.8
2019-Nov-12 02:44 106 5 gusting 7 3.3
2019-Nov-12 02:39 108 5 gusting 7 3.3
2019-Nov-12 02:34 095 6 gusting 7 2.8
2019-Nov-12 02:29 094 6 gusting 10 3.3
2019-Nov-12 02:24 097 5 gusting 7 2.8
2019-Nov-12 02:19 103 5 gusting 8 2.8
2019-Nov-12 02:14 111 5 gusting 6 2.8
2019-Nov-12 02:09 112 5 gusting 8 2.8
2019-Nov-12 02:04 116 6 gusting 7 3.3
2019-Nov-12 01:59 118 6 gusting 10 3.3
2019-Nov-12 01:54 120 6 gusting 7 3.3
2019-Nov-12 01:49 119 6 gusting 8 2.8
2019-Nov-12 01:44 124 6 gusting 11 2.8
2019-Nov-12 01:39 126 6 gusting 8 2.8
2019-Nov-12 01:34 135 6 gusting 7 2.8
2019-Nov-12 01:29 130 6 gusting 10 2.8
2019-Nov-12 01:24 142 5 gusting 11 2.8
2019-Nov-12 01:19 150 5 gusting 7 2.8
2019-Nov-12 01:14 138 5 gusting 10 2.8
2019-Nov-12 01:09 137 5 gusting 8 2.2
2019-Nov-12 01:04 137 5 gusting 7 2.2
2019-Nov-12 00:59 140 5 gusting 6 2.2
2019-Nov-12 00:54 137 5 gusting 8 2.2
2019-Nov-12 00:49 138 5 gusting 7 2.2
2019-Nov-12 00:44 129 6 gusting 6 2.2
2019-Nov-12 00:39 137 6 gusting 7 2.2
2019-Nov-12 00:34 130 6 gusting 7 2.2
2019-Nov-12 00:29 131 6 gusting 8 2.2
2019-Nov-12 00:24 142 5 gusting 10 2.2
2019-Nov-12 00:19 140 5 gusting 11 2.2
2019-Nov-12 00:14 132 5 gusting 6 2.2
2019-Nov-12 00:09 130 5 gusting 7 2.2
2019-Nov-12 00:04 111 5 gusting 6 2.2
2019-Nov-11 23:59 109 5 gusting 6 1.7
2019-Nov-11 23:54 117 4 gusting 6 1.7
2019-Nov-11 23:49 106 4 gusting 6 1.1
2019-Nov-11 23:44 109 4 gusting 7 1.7
2019-Nov-11 23:39 094 4 gusting 5 1.7
2019-Nov-11 23:34 083 4 gusting 6 1.1
2019-Nov-11 23:29 093 4 gusting 7 1.7
2019-Nov-11 23:24 093 5 gusting 6 1.7
2019-Nov-11 23:19 102 5 gusting 6 2.2
2019-Nov-11 23:14 108 6 gusting 6 2.2
2019-Nov-11 23:09 105 6 gusting 7 2.2
2019-Nov-11 23:04 115 6 gusting 7 2.2
2019-Nov-11 22:59 111 6 gusting 8 2.8
2019-Nov-11 22:54 118 6 gusting 11 2.2
2019-Nov-11 22:49 129 6 gusting 10 2.2
2019-Nov-11 22:44 118 4 gusting 8 2.2
2019-Nov-11 22:39 121 4 gusting 7 2.2
2019-Nov-11 22:34 105 5 gusting 6 1.7
2019-Nov-11 22:29 102 5 gusting 8 1.7
2019-Nov-11 22:24 094 5 gusting 8 2.2
2019-Nov-11 22:19 113 5 gusting 7 2.2
2019-Nov-11 22:14 114 5 gusting 7 2.2
2019-Nov-11 22:09 120 5 gusting 6 2.2
2019-Nov-11 22:04 126 6 gusting 7 1.7
2019-Nov-11 21:59 126 6 gusting 7 2.8
2019-Nov-11 21:54 113 6 gusting 10 2.8
2019-Nov-11 21:49 124 6 gusting 8 2.8
2019-Nov-11 21:44 128 6 gusting 8 2.8
2019-Nov-11 21:39 130 6 gusting 8 2.8
2019-Nov-11 21:34 136 6 gusting 8 2.8
2019-Nov-11 21:29 132 6 gusting 8 2.8
2019-Nov-11 21:24 126 6 gusting 10 2.8
2019-Nov-11 21:19 136 6 gusting 10 2.2
2019-Nov-11 21:14 134 6 gusting 11 2.8
2019-Nov-11 21:09 134 6 gusting 11 2.2
2019-Nov-11 21:04 130 6 gusting 13 2.8
2019-Nov-11 20:59 138 6 gusting 11 2.2
2019-Nov-11 20:54 131 6 gusting 10 2.2
2019-Nov-11 20:49 132 6 gusting 10 2.2
2019-Nov-11 20:44 125 6 gusting 7 2.2
2019-Nov-11 20:39 138 6 gusting 10 2.8
2019-Nov-11 20:34 125 6 gusting 10 2.8
2019-Nov-11 20:29 111 6 gusting 10 2.2
2019-Nov-11 20:24 119 6 gusting 11 2.2
2019-Nov-11 20:19 121 6 gusting 8 2.8
2019-Nov-11 20:14 119 6 gusting 12 2.8
2019-Nov-11 20:09 129 6 gusting 8 2.2
2019-Nov-11 20:04 134 6 gusting 10 2.8
2019-Nov-11 19:59 132 6 gusting 8 2.8
2019-Nov-11 19:54 135 6 gusting 11 2.8
2019-Nov-11 19:49 151 6 gusting 11 2.8
2019-Nov-11 19:44 136 6 gusting 10 3.3
2019-Nov-11 19:39 141 6 gusting 10 3.3
2019-Nov-11 19:34 153 6 gusting 8 3.3
2019-Nov-11 19:29 145 6 gusting 10 2.8
2019-Nov-11 19:24 148 6 gusting 7 3.3
2019-Nov-11 19:19 152 6 gusting 11 3.3
2019-Nov-11 19:14 141 5 gusting 11 3.3
2019-Nov-11 19:09 146 5 gusting 7 3.3
2019-Nov-11 19:04 130 5 gusting 6 2.8
2019-Nov-11 18:59 134 5 gusting 6 2.8
2019-Nov-11 18:54 128 4 gusting 7 3.3
2019-Nov-11 18:49 139 4 gusting 7 2.8
2019-Nov-11 18:44 132 4 gusting 6 2.8
2019-Nov-11 18:39 141 4 gusting 6 3.3
2019-Nov-11 18:34 136 5 gusting 5 3.3
2019-Nov-11 18:29 144 5 gusting 6 3.3
2019-Nov-11 18:24 153 5 gusting 7 3.3
2019-Nov-11 18:19 148 5 gusting 8 3.9
2019-Nov-11 18:14 143 5 gusting 6 3.9
2019-Nov-11 18:09 154 5 gusting 8 4.4
2019-Nov-11 18:04 150 6 gusting 7 4.4
2019-Nov-11 17:59 163 6 gusting 8 3.9
2019-Nov-11 17:54 152 5 gusting 8 3.9
2019-Nov-11 17:49 147 5 gusting 8 3.9
2019-Nov-11 17:44 133 5 gusting 8 3.9
2019-Nov-11 17:39 150 5 gusting 8 3.9
2019-Nov-11 17:34 140 5 gusting 7 3.9
2019-Nov-11 17:29 128 5 gusting 7 3.9
2019-Nov-11 17:24 137 5 gusting 7 3.9
2019-Nov-11 17:19 141 5 gusting 7 4.4
2019-Nov-11 17:14 144 5 gusting 7 4.4
2019-Nov-11 17:09 145 5 gusting 6 4.4
2019-Nov-11 17:04 142 5 gusting 6 4.4
2019-Nov-11 16:59 146 5 gusting 7 4.4
2019-Nov-11 16:54 139 5 gusting 8 4.4
2019-Nov-11 16:49 147 5 gusting 7 4.4
2019-Nov-11 16:44 153 4 gusting 8 4.4
2019-Nov-11 16:39 153 4 gusting 7 4.4
2019-Nov-11 16:34 149 5 gusting 6 4.4
2019-Nov-11 16:29 135 5 gusting 6 5.0
2019-Nov-11 16:24 145 6 gusting 7 5.0
2019-Nov-11 16:19 147 6 gusting 8 4.4
2019-Nov-11 16:14 142 6 gusting 8 4.4
2019-Nov-11 16:09 144 6 gusting 10 5.0
2019-Nov-11 16:04 157 6 gusting 8 5.0
2019-Nov-11 15:59 151 6 gusting 10 4.4
2019-Nov-11 15:54 143 6 gusting 10 4.4
2019-Nov-11 15:49 143 6 gusting 11 4.4
2019-Nov-11 15:44 141 6 gusting 8 5.0
2019-Nov-11 15:39 143 6 gusting 10 5.0
2019-Nov-11 15:34 141 6 gusting 11 5.0
2019-Nov-11 15:29 142 6 gusting 10 5.0
2019-Nov-11 15:24 138 6 gusting 8 5.0
2019-Nov-11 15:19 145 6 gusting 11 5.0
2019-Nov-11 15:14 138 5 gusting 10 5.0
2019-Nov-11 15:09 139 5 gusting 8 5.0
2019-Nov-11 15:04 136 5 gusting 7 5.0
2019-Nov-11 14:59 125 5 gusting 6 5.0
2019-Nov-11 14:54 132 5 gusting 8 5.0
2019-Nov-11 14:49 128 5 gusting 6 5.0
2019-Nov-11 14:44 134 5 gusting 7 5.0
2019-Nov-11 14:39 122 5 gusting 6 4.4
2019-Nov-11 14:34 127 4 gusting 6 4.4
2019-Nov-11 14:29 123 4 gusting 6 4.4
2019-Nov-11 14:24 122 4 gusting 6 4.4
2019-Nov-11 14:19 122 4 gusting 6 4.4
2019-Nov-11 14:14 128 5 gusting 6 4.4
2019-Nov-11 14:09 133 5 gusting 6 4.4
2019-Nov-11 14:04 130 5 gusting 6 4.4
2019-Nov-11 13:59 143 5 gusting 6 5.0
2019-Nov-11 13:54 154 6 gusting 8 5.0
2019-Nov-11 13:49 147 6 gusting 8 5.0
2019-Nov-11 13:44 142 6 gusting 8 5.0
2019-Nov-11 13:39 142 6 gusting 10 5.0
2019-Nov-11 13:34 148 6 gusting 10 5.0
2019-Nov-11 13:29 151 6 gusting 10 5.0
2019-Nov-11 13:24 152 5 gusting 8 5.0
2019-Nov-11 13:19 139 5 gusting 10 5.0
2019-Nov-11 13:14 136 5 gusting 6 5.0
2019-Nov-11 13:09 136 5 gusting 6 5.0
2019-Nov-11 13:04 135 5 gusting 7 5.0
2019-Nov-11 12:59 142 5 gusting 7 5.0
2019-Nov-11 12:54 144 5 gusting 7 5.0
2019-Nov-11 12:49 145 5 gusting 7 5.0
2019-Nov-11 12:44 140 5 gusting 8 5.0
2019-Nov-11 12:39 135 5 gusting 6 5.0
2019-Nov-11 12:34 152 8 gusting 6 4.4
2019-Nov-11 12:29 165 8 gusting 11 5.0
2019-Nov-11 12:24 154 6 gusting 13 5.0
2019-Nov-11 12:19 160 6 gusting 14 4.4
2019-Nov-11 12:14 183 5 gusting 13 4.4
2019-Nov-11 12:09 163 5 gusting 8 4.4
2019-Nov-11 12:04 145 6 gusting 6 5.0
2019-Nov-11 11:59 148 6 gusting 8 5.0
2019-Nov-11 11:54 153 6 gusting 7 5.0
2019-Nov-11 11:49 143 6 gusting 10 5.0
2019-Nov-11 11:44 150 6 gusting 11 4.4
2019-Nov-11 11:39 153 6 gusting 8 4.4
2019-Nov-11 11:34 161 6 gusting 10 5.0
2019-Nov-11 11:29 158 6 gusting 11 5.0
2019-Nov-11 11:24 153 6 gusting 10 5.0
2019-Nov-11 11:19 150 6 gusting 11 5.0
2019-Nov-11 11:14 160 7 gusting 12 5.0
2019-Nov-11 11:09 150 7 gusting 11 5.0
2019-Nov-11 11:04 155 6 gusting 13 5.0
2019-Nov-11 10:59 152 6 gusting 13 5.0
2019-Nov-11 10:54 157 5 gusting 11 5.6
2019-Nov-11 10:49 158 5 gusting 7 5.0
2019-Nov-11 10:44 154 5 gusting 8 4.4
2019-Nov-11 10:39 138 5 gusting 6 3.9
2019-Nov-11 10:34 158 6 gusting 8 3.9
2019-Nov-11 10:29 160 6 gusting 10 3.9
2019-Nov-11 10:24 136 7 gusting 11 3.3
2019-Nov-11 10:19 152 7 gusting 11 3.3
2019-Nov-11 10:14 144 6 gusting 14 3.3
2019-Nov-11 10:09 146 6 gusting 12 3.9
2019-Nov-11 10:04 147 6 gusting 11 3.3
2019-Nov-11 09:59 141 6 gusting 12 3.3
2019-Nov-11 09:54 145 6 gusting 11 3.3
2019-Nov-11 09:49 147 6 gusting 11 3.3
2019-Nov-11 09:44 144 7 gusting 13 2.8
2019-Nov-11 09:39 141 7 gusting 13 2.8
2019-Nov-11 09:34 141 8 gusting 13 2.8
2019-Nov-11 09:29 140 8 gusting 13 2.8
2019-Nov-11 09:24 143 8 gusting 13 2.8
2019-Nov-11 09:19 138 8 gusting 13 2.8
2019-Nov-11 09:14 140 7 gusting 13 2.2
2019-Nov-11 09:09 138 7 gusting 15 2.2
2019-Nov-11 09:04 148 6 gusting 13 2.2
2019-Nov-11 08:59 137 6 gusting 13 2.2
2019-Nov-11 08:54 144 7 gusting 10 2.2
2019-Nov-11 08:49 141 7 gusting 11 2.2
2019-Nov-11 08:44 134 7 gusting 13 1.7
2019-Nov-11 08:39 139 7 gusting 12 1.7
2019-Nov-11 08:34 138 7 gusting 11 1.7
2019-Nov-11 08:29 136 6 gusting 10 1.7
2019-Nov-11 08:24 138 7 gusting 6 1.7
2019-Nov-11 08:19 138 7 gusting 6 1.7
2019-Nov-11 08:14 138 7 gusting 14 1.7
2019-Nov-11 08:09 122 7 gusting 12 1.7
2019-Nov-11 08:04 136 7 gusting 13 1.7
2019-Nov-11 07:59 123 7 gusting 13 1.1
2019-Nov-11 07:54 104 7 gusting 11 1.1
2019-Nov-11 07:49 119 7 gusting 13 1.1
2019-Nov-11 07:44 120 6 gusting 13 1.1
2019-Nov-11 07:39 121 6 gusting 12 0.6
2019-Nov-11 07:34 111 7 gusting 13 0.6
2019-Nov-11 07:29 122 7 gusting 12 0.6
2019-Nov-11 07:24 112 7 gusting 12 0.6
2019-Nov-11 07:19 096 7 gusting 10 0.6
2019-Nov-11 07:14 106 7 gusting 12 0.6
2019-Nov-11 07:09 101 7 gusting 12 0.6
2019-Nov-11 07:04 105 7 gusting 11 1.1
2019-Nov-11 06:59 106 7 gusting 13 1.1
2019-Nov-11 06:54 104 6 gusting 12 1.1
2019-Nov-11 06:49 098 6 gusting 13 0.6
2019-Nov-11 06:44 104 7 gusting 11 0.6
2019-Nov-11 06:39 103 7 gusting 13 0.6
2019-Nov-11 06:34 095 7 gusting 11 0.6
2019-Nov-11 06:29 094 7 gusting 13 0.6
2019-Nov-11 06:24 082 6 gusting 11 0.6
2019-Nov-11 06:19 079 6 gusting 11 0.6
2019-Nov-11 06:14 087 6 gusting 12 0.6
2019-Nov-11 06:09 108 6 gusting 10 0.6
2019-Nov-11 06:04 111 7 gusting 12 0.6
2019-Nov-11 05:59 102 7 gusting 10 0.6
2019-Nov-11 05:54 108 7 gusting 13 0.6
2019-Nov-11 05:49 103 7 gusting 12 0.6
2019-Nov-11 05:44 107 6 gusting 13 0.6
2019-Nov-11 05:39 094 6 gusting 10 0.6
2019-Nov-11 05:34 092 7 gusting 8 0.6
2019-Nov-11 05:29 087 10 gusting 6 0.6
2019-Nov-11 05:24 087 10 gusting 6 0.6
2019-Nov-11 05:19 092 10 gusting 13 -0.0
2019-Nov-11 05:14 093 7 gusting 13 0.6
2019-Nov-11 05:09 093 7 gusting 14 -0.0
2019-Nov-11 05:04 093 7 gusting 11 -0.0
2019-Nov-11 04:59 100 7 gusting 13 -0.0
2019-Nov-11 04:54 103 7 gusting 12 -0.0
2019-Nov-11 04:49 102 7 gusting 12 0.6
2019-Nov-11 04:44 090 7 gusting 12 -0.0
2019-Nov-11 04:39 093 7 gusting 13 0.6
2019-Nov-11 04:34 105 7 gusting 13 -0.0
2019-Nov-11 04:29 110 7 gusting 10 -0.0
2019-Nov-11 04:24 104 7 gusting 12 -0.0
2019-Nov-11 04:19 107 7 gusting 11 -0.0
2019-Nov-11 04:14 102 8 gusting 13 -0.0
2019-Nov-11 04:09 106 8 gusting 13 -0.0
2019-Nov-11 04:04 118 6 gusting 12 -0.0
2019-Nov-11 03:59 101 6 gusting 13 -0.6
2019-Nov-11 03:54 116 6 gusting 11 -0.6
2019-Nov-11 03:49 108 6 gusting 11 -0.6
2019-Nov-11 03:44 103 8 gusting 12 -0.0
2019-Nov-11 03:39 116 8 gusting 10 -0.0
2019-Nov-11 03:34 105 10 gusting 13 -0.0
2019-Nov-11 03:29 103 10 gusting 13 -1.1
2019-Nov-11 03:24 106 10 gusting 13 -0.0
2019-Nov-11 03:19 105 10 gusting 17 -1.1
2019-Nov-11 03:14 097 7 gusting 13 -0.6
2019-Nov-11 03:09 098 7 gusting 13 -0.6
2019-Nov-11 03:04 093 6 gusting 11 -0.6
2019-Nov-11 02:59 101 6 gusting 10 -1.1
2019-Nov-11 02:54 097 6 gusting 8 -1.1
2019-Nov-11 02:49 107 6 gusting 11 -0.6
2019-Nov-11 02:44 118 6 gusting 10 -0.6
2019-Nov-11 02:39 104 6 gusting 10 -0.6
2019-Nov-11 02:34 091 6 gusting 10 -1.7
2019-Nov-11 02:29 092 6 gusting 10 -1.7
2019-Nov-11 02:24 102 5 gusting 7 -1.7
2019-Nov-11 02:19 094 5 gusting 7 -1.7
2019-Nov-11 02:14 101 6 gusting 7 -1.7
2019-Nov-11 02:09 101 6 gusting 6 -1.7
2019-Nov-11 02:04 111 6 gusting 10 -1.7
2019-Nov-11 01:59 105 6 gusting 8 -1.7
2019-Nov-11 01:54 102 6 gusting 8 -0.6
2019-Nov-11 01:49 104 6 gusting 8 -0.6
2019-Nov-11 01:44 118 5 gusting 12 -0.6
2019-Nov-11 01:39 124 5 gusting 7 -1.7
2019-Nov-11 01:34 115 5 gusting 6 -0.6
2019-Nov-11 01:29 115 5 gusting 6 -1.1
2019-Nov-11 01:24 103 5 gusting 6 -1.1
2019-Nov-11 01:19 096 5 gusting 7 -1.1
2019-Nov-11 01:14 083 5 gusting 7 -1.1
2019-Nov-11 01:09 077 5 gusting 6 -1.1
2019-Nov-11 01:04 085 5 gusting 6 -1.7
2019-Nov-11 00:59 077 5 gusting 7 -0.6
2019-Nov-11 00:54 078 5 gusting 6 -1.7
2019-Nov-11 00:49 079 5 gusting 8 -1.7
2019-Nov-11 00:44 077 4 gusting 6 -1.7
2019-Nov-11 00:39 072 4 gusting 6 -1.7
2019-Nov-11 00:34 073 4 gusting 7 -1.7
2019-Nov-11 00:29 061 4 gusting 6 -1.7
2019-Nov-11 00:24 063 4 gusting 6 -1.7
2019-Nov-11 00:19 068 4 gusting 6 -1.7
2019-Nov-11 00:14 079 4 gusting 6 -0.6
2019-Nov-11 00:09 075 4 gusting 6 -0.6
2019-Nov-11 00:04 069 4 gusting 6 -0.6
2019-Nov-10 23:59 077 4 gusting 6 -1.7
2019-Nov-10 23:54 082 4 gusting 5 -1.7
2019-Nov-10 23:49 073 4 gusting 5 -1.7
2019-Nov-10 23:44 079 4 gusting 5 -0.6
2019-Nov-10 23:39 078 4 gusting 6 -0.6
2019-Nov-10 23:34 080 4 gusting 6 -0.6
2019-Nov-10 23:29 078 4 gusting 5 -0.6
2019-Nov-10 23:24 086 4 gusting 5 -0.6
2019-Nov-10 23:19 088 4 gusting 5 -0.6
2019-Nov-10 23:14 087 4 gusting 5 -0.6
2019-Nov-10 23:09 089 4 gusting 5 -0.6
2019-Nov-10 23:04 090 4 gusting 5 -0.6
2019-Nov-10 22:59 097 4 gusting 5 -0.6
2019-Nov-10 22:54 102 4 gusting 6 -1.7
2019-Nov-10 22:49 100 4 gusting 5 -1.7
2019-Nov-10 22:44 099 4 gusting 4 -1.7
2019-Nov-10 22:39 099 4 gusting 4 -1.7
2019-Nov-10 22:34 099 4 gusting 5 -1.7
2019-Nov-10 22:29 104 4 gusting 6 -1.7
2019-Nov-10 22:24 099 4 gusting 6 -1.1
2019-Nov-10 22:19 100 4 gusting 6 -1.1
2019-Nov-10 22:14 080 4 gusting 5 -0.6
2019-Nov-10 22:09 103 4 gusting 6 -0.6
2019-Nov-10 22:04 101 1 gusting 5 -0.6
2019-Nov-10 21:59 111 1 gusting 5 -0.6
2019-Nov-10 21:54 127 1 gusting 4 -1.1
2019-Nov-10 21:49 127 1 gusting 2 -1.1
2019-Nov-10 21:44 127 2 gusting 2 -1.1
2019-Nov-10 21:39 126 2 gusting 2 -0.6
2019-Nov-10 21:34 128 4 gusting 5 -0.6
2019-Nov-10 21:29 130 4 gusting 4 -0.6
2019-Nov-10 21:24 100 4 gusting 6 -0.6
2019-Nov-10 21:19 114 4 gusting 7 -1.1
2019-Nov-10 21:14 130 4 gusting 5 -0.6
2019-Nov-10 21:09 120 4 gusting 6 -0.6
2019-Nov-10 21:04 122 4 gusting 6 -0.6
2019-Nov-10 20:59 125 4 gusting 6 -0.6
2019-Nov-10 20:54 121 4 gusting 6 -0.6
2019-Nov-10 20:49 104 4 gusting 6 -0.6
2019-Nov-10 20:44 099 5 gusting 6 -0.6
2019-Nov-10 20:39 101 5 gusting 6 -0.6
2019-Nov-10 20:34 102 5 gusting 6 -0.6
2019-Nov-10 20:29 120 5 gusting 6 -1.7
2019-Nov-10 20:24 112 5 gusting 7 -0.6
2019-Nov-10 20:19 114 5 gusting 7 -0.6
2019-Nov-10 20:14 120 4 gusting 7 -0.6
2019-Nov-10 20:09 106 4 gusting 6 -1.7
2019-Nov-10 20:04 105 4 gusting 6 -1.7
2019-Nov-10 19:59 106 4 gusting 5 -0.6
2019-Nov-10 19:54 096 4 gusting 6 -0.6
2019-Nov-10 19:49 105 4 gusting 5 -0.6
2019-Nov-10 19:44 093 4 gusting 5 -0.6
2019-Nov-10 19:39 094 4 gusting 5 -0.6
2019-Nov-10 19:34 102 4 gusting 5 -0.6
2019-Nov-10 19:29 099 4 gusting 4 -0.6
2019-Nov-10 19:24 102 4 gusting 2 -0.6
2019-Nov-10 19:19 102 4 gusting 2 -0.6
2019-Nov-10 19:14 102 4 gusting 6 -0.6
2019-Nov-10 19:09 096 4 gusting 6 -0.6
2019-Nov-10 19:04 083 4 gusting 6 -0.6
2019-Nov-10 18:59 080 4 gusting 4 -0.6
2019-Nov-10 18:54 088 4 gusting 5 -0.6
2019-Nov-10 18:49 085 4 gusting 6 -0.6
2019-Nov-10 18:44 083 2 gusting 6 -1.1
2019-Nov-10 18:39 089 2 gusting 6 -1.1
2019-Nov-10 18:34 089 4 gusting 5 -1.1
2019-Nov-10 18:29 096 4 gusting 5 -1.1
2019-Nov-10 18:24 089 2 gusting 5 -1.1
2019-Nov-10 18:19 094 2 gusting 5 -0.6
2019-Nov-10 18:14 090 2 gusting 4 -0.6
2019-Nov-10 18:09 088 2 gusting 4 -0.6
2019-Nov-10 18:04 081 2 gusting 5 -0.6
2019-Nov-10 17:59 079 2 gusting 5 -0.6
2019-Nov-10 17:54 095 5 gusting 2 -0.6
2019-Nov-10 17:49 095 5 gusting 2 -0.6
2019-Nov-10 17:44 095 5 gusting 5 -0.6
2019-Nov-10 17:39 098 5 gusting 6 -0.6
2019-Nov-10 17:34 099 4 gusting 6 -0.6
2019-Nov-10 17:29 086 4 gusting 6 -1.1
2019-Nov-10 17:24 076 2 gusting 5 -1.1
2019-Nov-10 17:19 076 2 gusting 5 -0.6
2019-Nov-10 17:14 069 4 gusting 4 -0.6
2019-Nov-10 17:09 079 4 gusting 5 -0.6
2019-Nov-10 17:04 070 2 gusting 6 -0.6
2019-Nov-10 16:59 069 2 gusting 6 -1.1
2019-Nov-10 16:54 074 2 gusting 5 -1.1
2019-Nov-10 16:49 069 2 gusting 5 -0.6
2019-Nov-10 16:44 062 1 gusting 5 -0.6
2019-Nov-10 16:39 070 1 gusting 5 -0.6
2019-Nov-10 16:34 069 4 gusting 4 -0.6
2019-Nov-10 16:29 063 4 gusting 4 -0.6
2019-Nov-10 16:24 071 2 gusting 5 -0.6
2019-Nov-10 16:19 074 2 gusting 5 -0.0
2019-Nov-10 16:14 072 2 gusting 5 -1.1
2019-Nov-10 16:09 059 2 gusting 4 -1.1
2019-Nov-10 16:04 065 1 gusting 5 -1.1
2019-Nov-10 15:59 058 1 gusting 4 -1.1
2019-Nov-10 15:54 063 1 gusting 2 -1.1
2019-Nov-10 15:49 061 1 gusting 2 -1.1
2019-Nov-10 15:44 059 1 gusting 2 -1.1
2019-Nov-10 15:39 059 1 gusting 2 -1.1
2019-Nov-10 15:34 059 2 gusting 2 -1.1
2019-Nov-10 15:29 059 2 gusting 4 -1.1
2019-Nov-10 15:24 059 1 gusting 4 -1.1
2019-Nov-10 15:19 053 1 gusting 4 -1.1
2019-Nov-10 15:14 030 1 gusting 4 -1.1
2019-Nov-10 15:09 046 1 gusting 4 -1.1
2019-Nov-10 15:04 038 -1.1
2019-Nov-10 14:59 033 -0.6
2019-Nov-10 14:54 032 2 gusting 1 -0.6
2019-Nov-10 14:49 031 2 gusting 1 -0.6
2019-Nov-10 14:44 027 2 gusting 4 -0.6
2019-Nov-10 14:39 050 2 gusting 5 -0.6
2019-Nov-10 14:34 034 1 gusting 5 -0.0
2019-Nov-10 14:29 044 1 gusting 6 -0.0
2019-Nov-10 14:24 021 1 gusting 4 0.6
2019-Nov-10 14:19 044 1 gusting 6 0.6
2019-Nov-10 14:14 029 4 gusting 4 0.6
2019-Nov-10 14:09 356 4 gusting 6 -0.0
2019-Nov-10 14:04 023 1 gusting 5 -0.0
2019-Nov-10 13:59 037 1 gusting 6 -0.0
2019-Nov-10 13:54 039 1 gusting 4 -0.0
2019-Nov-10 13:49 013 1 gusting 5 -0.0
2019-Nov-10 13:44 013 4 gusting 4 -0.0
2019-Nov-10 13:39 032 4 gusting 6 -0.0
2019-Nov-10 13:34 028 1 gusting 6 -0.0
2019-Nov-10 13:29 025 1 gusting 5 -0.0
2019-Nov-10 13:24 015 4 gusting 4 -0.0
2019-Nov-10 13:19 007 4 gusting 6 -0.0
2019-Nov-10 13:14 030 1 gusting 5 0.6
2019-Nov-10 13:09 040 1 gusting 6 -0.0
2019-Nov-10 13:04 001 2 gusting 5 -0.0
2019-Nov-10 12:59 023 2 gusting 5 -0.0
2019-Nov-10 12:54 034 1 gusting 5 0.6
2019-Nov-10 12:49 025 1 gusting 6 0.6
2019-Nov-10 12:44 033 1 gusting 4 0.6
2019-Nov-10 12:39 001 1 gusting 6 0.6
2019-Nov-10 12:34 354 4 gusting 4 0.6
2019-Nov-10 12:29 026 4 gusting 4 0.6
2019-Nov-10 12:24 359 1 gusting 5 0.6
2019-Nov-10 12:19 039 1 gusting 6 0.6
2019-Nov-10 12:14 034 1 gusting 5 0.6
2019-Nov-10 12:09 358 1 gusting 5 0.6
2019-Nov-10 12:04 345 1 gusting 4 0.6
2019-Nov-10 11:59 039 1 gusting 5 0.6
2019-Nov-10 11:54 034 4 gusting 5 0.6
2019-Nov-10 11:49 043 4 gusting 5 0.6
2019-Nov-10 11:44 037 4 gusting 6 0.6
2019-Nov-10 11:39 029 4 gusting 6 0.6
2019-Nov-10 11:34 044 2 gusting 6 0.6
2019-Nov-10 11:29 040 2 gusting 5 0.6
2019-Nov-10 11:24 002 2 gusting 5 0.6
2019-Nov-10 11:19 027 2 gusting 6 0.6
2019-Nov-10 11:14 020 2 gusting 6 0.6
2019-Nov-10 11:09 014 2 gusting 5 0.6
2019-Nov-10 11:04 015 4 gusting 6 0.6
2019-Nov-10 10:59 004 4 gusting 5 0.6
2019-Nov-10 10:54 033 5 gusting 7 -0.0
2019-Nov-10 10:49 048 5 gusting 7 -0.0
2019-Nov-10 10:44 053 1 gusting 6 -0.0
2019-Nov-10 10:39 053 1 gusting 6 -0.0
2019-Nov-10 10:34 040 4 gusting 4 -0.0
2019-Nov-10 10:29 024 4 gusting 5 -0.0
2019-Nov-10 10:24 054 4 gusting 6 -0.0
2019-Nov-10 10:19 018 4 gusting 6 -0.6
2019-Nov-10 10:14 026 4 gusting 4 -0.6
2019-Nov-10 10:09 026 4 gusting 4 -0.0
2019-Nov-10 10:04 026 4 gusting 6 -0.0
2019-Nov-10 09:59 034 4 gusting 6 -0.0
2019-Nov-10 09:54 050 2 gusting 6 -0.0
2019-Nov-10 09:49 052 2 gusting 6 -0.0
2019-Nov-10 09:44 030 4 gusting 5 -0.6
2019-Nov-10 09:39 036 4 gusting 6 -1.1
2019-Nov-10 09:34 040 4 gusting 6 -1.1
2019-Nov-10 09:29 037 4 gusting 6 -1.1
2019-Nov-10 09:24 040 2 gusting 6 -1.1
2019-Nov-10 09:19 024 2 gusting 6 -1.1
2019-Nov-10 09:14 035 4 gusting 6 -1.1
2019-Nov-10 09:09 037 4 gusting 6 -1.1
2019-Nov-10 09:04 022 4 gusting 6 -1.1
2019-Nov-10 08:59 037 4 gusting 6 -1.1
2019-Nov-10 08:54 038 2 gusting 7 -1.1
2019-Nov-10 08:49 028 2 gusting 7 -1.1
2019-Nov-10 08:44 032 2 gusting 6 -0.0
2019-Nov-10 08:39 016 2 gusting 6 -0.0
2019-Nov-10 08:34 027 2 gusting 6 -0.0
2019-Nov-10 08:29 -0.0
2019-Nov-10 08:24 034 2 gusting 5 -0.0
2019-Nov-10 08:19 016 2 gusting 5 -0.0
2019-Nov-10 08:14 028 1 gusting 6 -0.0
2019-Nov-10 08:09 005 1 gusting 6 -0.0
2019-Nov-10 08:04 001 4 gusting 5 -0.0
2019-Nov-10 07:59 038 4 gusting 6 -0.0
2019-Nov-10 07:54 008 2 gusting 6 -0.0
2019-Nov-10 07:49 031 2 gusting 6 -0.6
2019-Nov-10 07:44 011 2 gusting 6 -0.0
2019-Nov-10 07:39 040 2 gusting 5 -0.0
2019-Nov-10 07:34 040 1 gusting 6 -0.0
2019-Nov-10 07:29 020 1 gusting 5 -0.0
2019-Nov-10 07:24 027 1 gusting 4 -0.0
2019-Nov-10 07:19 028 1 gusting 5 -0.0
2019-Nov-10 07:14 005 1 gusting 6 -0.0
2019-Nov-10 07:09 358 1 gusting 5 -0.0
2019-Nov-10 07:04 015 1 gusting 5 -0.0
2019-Nov-10 06:59 017 1 gusting 4 -0.0
2019-Nov-10 06:54 021 4 gusting 5 -1.1
2019-Nov-10 06:49 035 4 gusting 5 -1.1
2019-Nov-10 06:44 033 4 gusting 6 -1.1
2019-Nov-10 06:39 024 4 gusting 6 -0.6
2019-Nov-10 06:34 035 2 gusting 7 -0.6
2019-Nov-10 06:29 047 2 gusting 6 -0.6
2019-Nov-10 06:24 032 1 gusting 5 -0.6
2019-Nov-10 06:19 036 1 gusting 5 -0.6
2019-Nov-10 06:14 353 1 gusting 5 -0.6
2019-Nov-10 06:09 025 1 gusting 5 -0.0
2019-Nov-10 06:04 007 1 gusting 6 -0.0